MDT,Max TemperatureF,Mean TemperatureF,Min TemperatureF,Max Dew PointF,MeanDew PointF,Min DewpointF,Max Humidity, Mean Humidity, Min Humidity, Max Sea Level PressureIn, Mean Sea Level PressureIn, Min Sea Level PressureIn, Max VisibilityMiles, Mean VisibilityMiles, Min VisibilityMiles, Max Wind SpeedMPH, Mean Wind SpeedMPH, Max Gust SpeedMPH,PrecipitationIn, CloudCover, Events, WindDirDegrees
2013-9-1,100,84,68,54,49,44,55,32,15,29.85,29.80,29.74,10,10,10,14,6,26,0.00,0,,132
2013-9-2,93,81,70,66,59,48,84,55,33,30.05,29.91,29.83,10,10,10,9,4,16,0.01,1,Rain-Thunderstorm,333
2013-9-3,93,78,64,64,56,45,90,50,21,30.16,29.94,29.86,10,10,8,13,5,26,0.00,0,,100
2013-9-4,96,80,63,56,47,40,60,34,15,30.03,29.97,29.91,10,10,10,12,4,18,0.00,2,,342
2013-9-5,96,78,63,56,46,36,63,34,13,30.05,29.98,29.93,10,10,10,10,4,22,0.00,0,,120
2013-9-6,93,80,68,60,55,52,65,42,25,30.02,29.95,29.87,10,10,10,16,5,21,0.00,1,,149
2013-9-7,93,80,66,57,52,47,63,39,22,29.97,29.90,29.82,10,10,10,14,5,22,0.00,0,,139
2013-9-8,93,78,64,56,52,48,56,40,22,29.89,29.82,29.73,10,10,10,14,5,20,0.00,1,,131
2013-9-9,91,78,68,62,59,55,78,57,35,29.98,29.81,29.72,10,10,10,20,8,31,0.00,3,Thunderstorm,147
2013-9-10,82,74,66,68,63,56,87,71,47,30.08,29.88,29.82,10,10,10,14,6,21,0.36,5,Rain,143
2013-9-11,82,76,69,70,67,64,100,86,54,30.11,29.97,29.88,10,9,2,15,8,16,1.52,8,Rain-Thunderstorm,175
2013-9-12,75,70,66,68,66,64,97,89,76,30.14,29.99,29.92,10,10,8,12,5,,1.02,6,Rain,332
2013-9-13,87,76,66,66,61,52,93,64,31,29.94,29.86,29.76,10,10,10,16,5,22,0.00,1,,139
2013-9-14,86,74,64,64,59,52,93,62,32,29.88,29.82,29.75,10,10,10,12,5,,0.00,0,,198
2013-9-15,87,75,64,63,57,53,78,55,35,29.99,29.88,29.81,10,10,10,9,4,,0.00,1,Rain-Thunderstorm,223
2013-9-16,87,75,64,65,61,54,93,68,34,30.17,29.99,29.89,10,10,10,14,6,21,0.33,4,Rain-Thunderstorm,146
2013-9-17,82,74,66,67,64,60,94,76,50,30.15,29.98,29.85,10,10,10,15,6,20,0.17,5,Rain,133
2013-9-18,87,76,64,64,62,59,93,67,39,29.91,29.83,29.72,10,10,10,16,7,21,0.00,1,,155
2013-9-19,80,73,66,66,65,64,90,77,58,30.00,29.85,29.76,10,10,10,14,7,,0.00,5,,146
2013-9-20,81,72,64,65,62,58,90,74,48,30.08,29.93,29.81,10,10,10,18,9,23,0.00,7,,26
2013-9-21,78,70,62,61,58,56,94,73,48,30.14,29.98,29.83,10,10,10,13,5,16,0.00,4,,139
2013-9-22,84,70,57,58,52,43,93,58,25,29.84,29.74,29.64,10,10,10,17,8,25,0.00,0,,154
2013-9-23,87,72,57,54,47,35,81,48,16,29.85,29.72,29.63,10,10,10,9,5,16,0.00,0,,256
2013-9-24,86,70,55,52,45,35,77,49,17,30.02,29.91,29.86,10,10,10,14,6,,0.00,0,,286
2013-9-25,91,71,51,56,48,44,86,49,20,29.85,29.74,29.62,10,10,10,14,5,17,0.00,0,,186
2013-9-26,93,75,59,58,52,46,78,46,22,29.84,29.73,29.60,10,10,10,12,7,,0.00,1,,163
2013-9-27,89,76,64,67,60,55,87,62,31,29.73,29.66,29.58,10,10,10,13,5,23,0.03,4,Rain,177
2013-9-28,78,67,55,46,39,27,72,37,21,30.10,29.97,29.77,10,10,10,20,13,30,0.00,2,,334
2013-9-29,82,65,48,49,44,32,86,53,16,30.10,29.99,29.88,10,10,10,10,6,,0.00,0,,232
2013-9-30,90,70,50,46,38,27,74,37,11,29.87,29.78,29.69,10,10,10,14,4,20,0.00,0,,290